SEY77 FMCZ-FSIA

Flight info

Callsign SEY77
Flight time N/A
Altitude 33000
Route MAROF DCT BIRAL DCT NESAM DCT OKLAB DCT IMPOX IMPOX1E
Aircraft B77L/H-SDE1E2E3FGHIJ2J3J4J5M1RWXY/LB1D1

Departure

Time 2026-04-26 15:51
Airport Dzaoudzi Pamandzi International Airport (FMCZ)

Arrival

Time N/A
Airport Seychelles International Airport (FSIA)
Time Latitude Longitude Altitude Speed Heading
2026-04-26 15:16 -12.80399 45.28243 25 ft 0 kts 61°
2026-04-26 15:20 -12.80408 45.28227 31 ft 4 kts 61°
2026-04-26 15:21 -12.80421 45.28203 31 ft 4 kts 60°
2026-04-26 15:21 -12.80431 45.28185 31 ft 3 kts 86°
2026-04-26 15:21 -12.80435 45.28177 31 ft 4 kts 131°
2026-04-26 15:21 -12.80421 45.28161 30 ft 3 kts 129°
2026-04-26 15:22 -12.80408 45.28151 30 ft 1 kts 149°
2026-04-26 15:22 -12.80387 45.28138 30 ft 4 kts 154°
2026-04-26 15:22 -12.80367 45.28131 30 ft 4 kts 191°
2026-04-26 15:22 -12.80369 45.28124 30 ft 1 kts 239°
2026-04-26 15:23 -12.80368 45.28124 30 ft 0 kts 239°
2026-04-26 15:31 -12.80393 45.28253 31 ft 0 kts 61°
2026-04-26 15:45 -12.80403 45.28234 27 ft 4 kts 62°
2026-04-26 15:46 -12.80426 45.28198 31 ft 2 kts 72°
2026-04-26 15:46 -12.80430 45.28180 31 ft 4 kts 104°
2026-04-26 15:46 -12.80423 45.28161 30 ft 4 kts 125°
2026-04-26 15:46 -12.80421 45.28157 30 ft 4 kts 158°
2026-04-26 15:47 -12.80394 45.28143 30 ft 4 kts 152°
2026-04-26 15:47 -12.80365 45.28132 30 ft 4 kts 201°
2026-04-26 15:47 -12.80367 45.28126 30 ft 0 kts 239°
2026-04-26 15:48 -12.80369 45.28123 30 ft 2 kts 239°
2026-04-26 15:48 -12.80394 45.28079 27 ft 11 kts 239°
2026-04-26 15:48 -12.80431 45.28016 28 ft 10 kts 239°
2026-04-26 15:48 -12.80461 45.27960 27 ft 8 kts 251°
2026-04-26 15:49 -12.80417 45.27909 29 ft 14 kts 335°
2026-04-26 15:49 -12.80336 45.27864 28 ft 13 kts 330°
2026-04-26 15:49 -12.80261 45.27820 27 ft 12 kts 328°
2026-04-26 15:49 -12.80213 45.27759 26 ft 8 kts 300°
2026-04-26 15:50 -12.80180 45.27741 24 ft 3 kts 28°
2026-04-26 15:50 -12.80178 45.27752 25 ft 2 kts 84°
2026-04-26 15:50 -12.80217 45.27792 24 ft 20 kts 151°
2026-04-26 15:50 -12.80574 45.28004 27 ft 100 kts 150°
2026-04-26 15:51 -12.81416 45.28483 43 ft 174 kts 153°
2026-04-26 15:51 -12.82565 45.29140 511 ft 196 kts 152°
2026-04-26 15:51 -12.83713 45.29840 1386 ft 193 kts 150°
2026-04-26 15:51 -12.84873 45.30545 1981 ft 202 kts 143°
2026-04-26 15:52 -12.85681 45.31763 2038 ft 220 kts 100°
2026-04-26 15:52 -12.85449 45.33340 2185 ft 239 kts 60°
2026-04-26 15:52 -12.84231 45.34573 2339 ft 257 kts 33°
2026-04-26 15:52 -12.83211 45.35216 2627 ft 262 kts 32°
2026-04-26 15:53 -12.81104 45.36540 3419 ft 269 kts 33°
2026-04-26 15:53 -12.79537 45.37564 4053 ft 272 kts 35°
2026-04-26 15:53 -12.78008 45.38716 4715 ft 274 kts 41°
2026-04-26 15:53 -12.76586 45.40016 5362 ft 275 kts 46°
2026-04-26 15:54 -12.75268 45.41437 6038 ft 275 kts 50°
2026-04-26 15:54 -12.74034 45.42944 6661 ft 277 kts 53°
2026-04-26 15:54 -12.72856 45.44523 7197 ft 281 kts 55°
2026-04-26 15:54 -12.71711 45.46163 7758 ft 285 kts 57°
2026-04-26 15:55 -12.70590 45.47849 8340 ft 288 kts 57°
2026-04-26 15:55 -12.69480 45.49571 8883 ft 291 kts 58°
2026-04-26 15:55 -12.68376 45.51325 9460 ft 294 kts 58°
2026-04-26 15:55 -12.67288 45.53080 9987 ft 298 kts 58°
2026-04-26 15:56 -12.66168 45.54909 10315 ft 311 kts 59°
2026-04-26 15:56 -12.64990 45.56848 10447 ft 330 kts 59°
2026-04-26 15:56 -12.63747 45.58904 10591 ft 349 kts 59°
2026-04-26 15:56 -12.62435 45.61077 10734 ft 368 kts 59°
2026-04-26 15:57 -12.61063 45.63352 11004 ft 381 kts 59°
2026-04-26 15:57 -12.59654 45.65689 11442 ft 390 kts 59°
2026-04-26 15:57 -12.58222 45.68064 11986 ft 394 kts 59°
2026-04-26 15:57 -12.57266 45.69650 12389 ft 396 kts 59°
2026-04-26 15:58 -12.55339 45.72842 13176 ft 400 kts 59°
2026-04-26 15:58 -12.53871 45.75278 13731 ft 404 kts 59°
2026-04-26 15:58 -12.52386 45.77738 14234 ft 407 kts 59°
2026-04-26 15:58 -12.50893 45.80209 14765 ft 409 kts 59°
2026-04-26 15:59 -12.49397 45.82686 15293 ft 411 kts 59°
2026-04-26 15:59 -12.47894 45.85176 15814 ft 412 kts 59°
2026-04-26 15:59 -12.46383 45.87680 16318 ft 415 kts 59°
2026-04-26 15:59 -12.44885 45.90163 16807 ft 417 kts 59°
2026-04-26 16:00 -12.43356 45.92694 17264 ft 419 kts 59°
2026-04-26 16:00 -12.41817 45.95240 17751 ft 422 kts 59°
2026-04-26 16:00 -12.40273 45.97794 18206 ft 424 kts 59°
2026-04-26 16:00 -12.38718 46.00367 18589 ft 426 kts 59°
2026-04-26 16:01 -12.37157 46.02949 18975 ft 428 kts 59°
2026-04-26 16:01 -12.35588 46.05546 19378 ft 430 kts 59°
2026-04-26 16:01 -12.34034 46.08119 19764 ft 432 kts 59°
2026-04-26 16:01 -12.32453 46.10732 20159 ft 433 kts 58°
2026-04-26 16:02 -12.30746 46.13283 20519 ft 436 kts 53°
2026-04-26 16:02 -12.28777 46.15651 20883 ft 439 kts 47°
2026-04-26 16:02 -12.26642 46.17887 21300 ft 439 kts 46°
2026-04-26 16:02 -12.25220 46.19361 21532 ft 441 kts 46°
2026-04-26 16:03 -12.22322 46.22361 21974 ft 445 kts 46°
2026-04-26 16:03 -12.20146 46.24623 22332 ft 447 kts 46°
2026-04-26 16:03 -12.17962 46.26902 22710 ft 449 kts 46°
2026-04-26 16:03 -12.15804 46.29161 23049 ft 451 kts 46°
2026-04-26 16:04 -12.13611 46.31460 23406 ft 453 kts 46°
2026-04-26 16:04 -12.11409 46.33772 23698 ft 455 kts 46°
2026-04-26 16:04 -12.09196 46.36096 23929 ft 458 kts 46°
2026-04-26 16:04 -12.06961 46.38442 24159 ft 462 kts 46°
2026-04-26 16:05 -12.04716 46.40799 24396 ft 465 kts 46°
2026-04-26 16:05 -12.02450 46.43176 24659 ft 467 kts 46°
2026-04-26 16:05 -12.00178 46.45558 24903 ft 469 kts 46°
2026-04-26 16:05 -11.97923 46.47923 25136 ft 472 kts 46°
2026-04-26 16:06 -11.95628 46.50328 25374 ft 475 kts 46°
2026-04-26 16:06 -11.93316 46.52750 25603 ft 477 kts 45°
2026-04-26 16:06 -11.90992 46.55185 25809 ft 480 kts 45°
2026-04-26 16:06 -11.88653 46.57634 26034 ft 483 kts 45°
2026-04-26 16:07 -11.86300 46.60098 26255 ft 486 kts 45°
2026-04-26 16:07 -11.83936 46.62572 26465 ft 488 kts 45°
2026-04-26 16:07 -11.81556 46.65063 26716 ft 490 kts 45°
2026-04-26 16:07 -11.79173 46.67556 26971 ft 492 kts 45°
2026-04-26 16:08 -11.76811 46.70027 27207 ft 494 kts 45°
2026-04-26 16:08 -11.75187 46.71724 27370 ft 496 kts 45°
2026-04-26 16:08 -11.71986 46.75070 27656 ft 499 kts 45°
2026-04-26 16:08 -11.69560 46.77606 27877 ft 501 kts 45°
2026-04-26 16:09 -11.67122 46.80153 28093 ft 503 kts 45°
2026-04-26 16:09 -11.64673 46.82710 28300 ft 505 kts 45°
2026-04-26 16:09 -11.62214 46.85279 28512 ft 507 kts 45°
2026-04-26 16:09 -11.59746 46.87855 28720 ft 509 kts 45°
2026-04-26 16:10 -11.57302 46.90406 28899 ft 510 kts 45°
2026-04-26 16:10 -11.54816 46.92999 29101 ft 512 kts 45°
2026-04-26 16:10 -11.52324 46.95599 29279 ft 514 kts 44°
2026-04-26 16:10 -11.49823 46.98207 29514 ft 515 kts 44°
2026-04-26 16:11 -11.47316 47.00821 29798 ft 515 kts 44°
2026-04-26 16:11 -11.44816 47.03427 30057 ft 514 kts 44°
2026-04-26 16:11 -11.42318 47.06030 30325 ft 513 kts 44°
2026-04-26 16:11 -11.39833 47.08620 30649 ft 510 kts 44°
2026-04-26 16:12 -11.37353 47.11203 30959 ft 508 kts 44°
2026-04-26 16:12 -11.34921 47.13735 31260 ft 506 kts 44°
2026-04-26 16:12 -11.30009 47.18848 31846 ft 503 kts 44°
2026-04-26 16:13 -11.27561 47.21394 32123 ft 502 kts 44°
2026-04-26 16:13 -11.25125 47.23928 32406 ft 500 kts 44°
2026-04-26 16:13 -11.22693 47.26456 32683 ft 499 kts 44°
2026-04-26 16:13 -11.20271 47.28975 32955 ft 497 kts 44°
2026-04-26 16:14 -11.17855 47.31486 33234 ft 496 kts 44°
2026-04-26 16:14 -11.15442 47.33992 33504 ft 494 kts 44°
2026-04-26 16:14 -11.11902 47.37669 33892 ft 492 kts 44°
2026-04-26 16:27 -11.11894 47.37678 33886 ft 492 kts 44°
2026-04-26 16:28 -11.09590 47.40070 34059 ft 492 kts 44°
2026-04-26 16:28 -11.07195 47.42554 34178 ft 493 kts 44°
2026-04-26 16:28 -11.04793 47.45047 34309 ft 493 kts 44°
2026-04-26 16:28 -11.02424 47.47506 34469 ft 493 kts 44°
2026-04-26 16:29 -11.00025 47.49997 34639 ft 492 kts 44°
2026-04-26 16:29 -10.97632 47.52480 34799 ft 492 kts 43°
2026-04-26 16:29 -10.92821 47.57468 34895 ft 495 kts 43°
2026-04-26 16:30 -10.88003 47.62457 34928 ft 494 kts 43°
2026-04-26 16:30 -10.83196 47.67431 34936 ft 492 kts 43°
2026-04-26 16:31 -10.78434 47.72357 34936 ft 491 kts 43°
2026-04-26 16:31 -10.73641 47.77315 34938 ft 491 kts 43°
2026-04-26 16:32 -10.68850 47.82268 34939 ft 492 kts 43°
2026-04-26 16:32 -10.64050 47.87228 34941 ft 492 kts 43°
2026-04-26 16:33 -10.59270 47.92165 34940 ft 494 kts 43°
2026-04-26 16:33 -10.54448 47.97143 34944 ft 495 kts 43°
2026-04-26 16:34 -10.49615 48.02129 34937 ft 496 kts 43°
2026-04-26 16:34 -10.44767 48.07130 34938 ft 497 kts 43°
2026-04-26 16:35 -10.39917 48.12131 34939 ft 497 kts 43°
2026-04-26 16:35 -10.35091 48.17104 34936 ft 498 kts 43°
2026-04-26 16:36 -10.30231 48.22109 34936 ft 497 kts 43°
2026-04-26 16:36 -10.25376 48.27108 34938 ft 497 kts 43°
2026-04-26 16:37 -10.20521 48.32104 34936 ft 496 kts 43°
2026-04-26 16:37 -10.16531 48.36208 34936 ft 496 kts 43°
2026-04-26 16:38 -10.12152 48.40711 34931 ft 495 kts 43°
2026-04-26 16:38 -10.07318 48.45680 34933 ft 495 kts 43°
2026-04-26 16:39 -10.02486 48.50645 34930 ft 494 kts 43°
2026-04-26 16:39 -9.97902 48.55770 34933 ft 495 kts 49°
2026-04-26 16:40 -9.93668 48.61287 34933 ft 495 kts 50°
2026-04-26 16:40 -9.89461 48.66819 34933 ft 495 kts 50°
2026-04-26 16:41 -9.85232 48.72332 34931 ft 495 kts 50°
2026-04-26 16:41 -9.81018 48.77792 34933 ft 495 kts 50°
2026-04-26 16:42 -9.76767 48.83289 34932 ft 495 kts 50°
2026-04-26 16:42 -9.72518 48.88782 34929 ft 495 kts 50°
2026-04-26 16:43 -9.68271 48.94272 34928 ft 495 kts 50°
2026-04-26 16:43 -9.64052 48.99725 34928 ft 495 kts 50°
2026-04-26 16:44 -9.59804 49.05212 34929 ft 495 kts 50°
2026-04-26 16:44 -9.55558 49.10693 34937 ft 495 kts 50°
2026-04-26 16:45 -9.51305 49.16178 34932 ft 495 kts 50°
2026-04-26 16:45 -9.47048 49.21670 34930 ft 496 kts 50°
2026-04-26 16:46 -9.42812 49.27135 34928 ft 497 kts 50°
2026-04-26 16:46 -9.38539 49.32643 34931 ft 497 kts 50°
2026-04-26 16:47 -9.34261 49.38153 34932 ft 498 kts 50°
2026-04-26 16:47 -9.30005 49.43634 34932 ft 498 kts 50°
2026-04-26 16:48 -9.26490 49.48159 34927 ft 498 kts 50°
2026-04-26 16:48 -9.22202 49.53675 34928 ft 498 kts 50°
2026-04-26 16:49 -9.17914 49.59189 34929 ft 499 kts 50°
2026-04-26 16:49 -9.13624 49.64704 34929 ft 499 kts 50°
2026-04-26 16:50 -9.09361 49.70183 34927 ft 499 kts 50°
2026-04-26 16:50 -9.05070 49.75694 34923 ft 499 kts 50°
2026-04-26 16:51 -9.00782 49.81199 34926 ft 498 kts 50°
2026-04-26 16:51 -8.96488 49.86709 34927 ft 498 kts 50°
2026-04-26 16:52 -8.92924 49.91281 34926 ft 498 kts 50°
2026-04-26 16:52 -8.87935 49.97678 34924 ft 498 kts 50°
2026-04-26 16:53 -8.83642 50.03180 34927 ft 498 kts 50°
2026-04-26 16:53 -8.79351 50.08678 34925 ft 498 kts 50°
2026-04-26 16:54 -8.75056 50.14178 34926 ft 498 kts 50°
2026-04-26 16:54 -8.70790 50.19639 34926 ft 498 kts 50°
2026-04-26 16:55 -8.66490 50.25140 34924 ft 499 kts 50°
2026-04-26 16:55 -8.62191 50.30639 34922 ft 499 kts 50°
2026-04-26 16:56 -8.55762 50.38857 34924 ft 499 kts 50°
2026-04-26 16:57 -8.51457 50.44358 34927 ft 499 kts 50°
2026-04-26 16:57 -8.44991 50.52615 34922 ft 500 kts 50°
2026-04-26 16:58 -8.41406 50.57192 34921 ft 500 kts 50°
2026-04-26 16:59 -8.34235 50.66340 34923 ft 500 kts 50°
2026-04-26 17:00 -8.25600 50.77349 34927 ft 500 kts 50°
2026-04-26 17:00 -8.19155 50.85560 34928 ft 500 kts 50°
2026-04-26 17:01 -8.14837 50.91058 34927 ft 499 kts 50°
2026-04-26 17:01 -8.10522 50.96551 34924 ft 499 kts 50°
2026-04-26 17:02 -8.06207 51.02041 34932 ft 499 kts 50°
2026-04-26 17:02 -8.01887 51.07536 34929 ft 499 kts 50°
2026-04-26 17:03 -7.97603 51.12983 34932 ft 499 kts 50°
2026-04-26 17:03 -7.93288 51.18468 34926 ft 499 kts 50°
2026-04-26 17:04 -7.88969 51.23955 34926 ft 499 kts 50°
2026-04-26 17:04 -7.84653 51.29436 34924 ft 499 kts 50°
2026-04-26 17:05 -7.80364 51.34881 34925 ft 499 kts 50°
2026-04-26 17:05 -7.76045 51.40362 34930 ft 499 kts 50°
2026-04-26 17:06 -7.71725 51.45842 34924 ft 499 kts 50°
2026-04-26 17:06 -7.67411 51.51313 34925 ft 499 kts 50°
2026-04-26 17:07 -7.63095 51.56785 34929 ft 498 kts 50°
2026-04-26 17:07 -7.58808 51.62217 34926 ft 498 kts 50°
2026-04-26 17:08 -7.54497 51.67679 34923 ft 498 kts 50°
2026-04-26 17:08 -7.50187 51.73136 34924 ft 498 kts 50°
2026-04-26 17:09 -7.46605 51.77671 34924 ft 498 kts 50°
2026-04-26 17:09 -7.41594 51.84012 34923 ft 498 kts 50°